STARLINK-2608, 48365

Orbit data source: Space-Track

STARLINK-2608, 48365 is a payload satellite owned by SpaceX/Seattle (US) in LEO that was launched on Tue, 04 May 2021 UTC via an FALCON 9 launch vehicle from the Air Force Eastern Test Range (AFETR). Payload-class satellites include a variety of spacecraft equipped with specific instruments for various scientific and technological missions. These include communications satellites like Starlink; space stations such as the ISS; scientific satellites like the Hubble; Earth observation satellites from companies like Planet Labs, Umbra, and HawkEye 360; GPS; miniature CubeSats for education and research; and military/defense satellites.

Loading next visibility...
Identifier
48365, 2021-038N
Orbit
LEO
Country
Flag of USUS
Related business
Manufacturer
SpaceX/Seattle
Mission
Operational Commercial Communications
Bus & Motor
STARLINK, Unknown motor
Mass
260 kg wet, ~248 kg dry
Launch date (UTC)
2021-05-04 (5 years ago)
Launch vehicle
FALCON 9
Launch site
Air Force Eastern Test Range (AFETR)
Object type
Payload
Rocket body
Debris
Shape & HBR
Box + 1 Pan, 10.1 m
Radar Cross Section
13.562 m², Large (>1 m²)

Expand to show TLE details & history
Last TLE update: 2 days ago

TLE from 2 days ago
0 STARLINK-2608
1 48365U 21038N   26171.43179014 -.00000096  00000-0  86536-5 0  9995
2 48365  53.1576 229.8789 0001069  84.5577 275.5546 15.31706809282974
Epoch: 2026-06-20T10:21Z
TLE epoch observation values (Epoch: 2026-06-20T10:21:46.668Z)
Latitude
-0.00003°
Longitude
165.78793°
Altitude
471.549 km
Speed
7.632 km/s
True Right ascension
15h 19m 30s
True Declination
0° 00' 00"
Sunlit
Object was in full shadow at epoch
Visualization orbit readout
Latitude
Unknown
Longitude
Unknown
Altitude
Unknown
Speed
Unknown
Apparent Right ascension
Unknown
Apparent Declination
Unknown
Sunlit
N/A
Visualization observer readout
Local Sidereal Time
21:31:07
Azimuth
Unknown
Elevation
Unknown
Doppler factor
Unknown
Orbital elements
Apogee altitude
471.709 km
Perigee altitude
470.245 km
Semi-major axis
6,849.114 km
Eccentricity
0.00011
Inclination
53.1576°
RAAN
229.8789°
Arg. of periapsis
84.5577°
True anomaly
275.54241°
Mean anomaly
275.5546°
Eccentric anomaly
275.5485°
Mean motion
3.82906 °/min
Orbital period
94.02 mins
BSTAR
0.0000086536
Loading maneuver chart data...
Computing Atmospheric mass density...

Documentation

Showing up to 5 results
|